Time,TemperatureF,DewpointF,PressureIn,WindDirection,WindDirectionDegrees,WindSpeedMPH,WindSpeedGustMPH,Humidity,HourlyPrecipIn,Conditions,Clouds,dailyrainin,SolarRadiationWatts/m^2,SoftwareType,DateUTC
2013-05-08 00:00:00,59.7,48.7,29.99,SE,135,0.0,2.0,67,0.00,,,-99.99,0,WeatherLink 6.0.0,2013-05-08 04:00:00,
2013-05-08 00:01:00,58.7,47.8,29.99,SE,142,0.0,0.0,67,0.00,,,0.00,0,Wunderground v.1.15,2013-05-08 04:01:00,
2013-05-08 00:02:00,58.7,47.8,30.00,SE,142,0.0,0.0,67,0.00,,,0.00,0,Wunderground v.1.15,2013-05-08 04:02:00,
2013-05-08 00:04:00,58.6,48.1,30.00,SE,142,0.0,0.0,68,0.00,,,0.00,0,Wunderground v.1.15,2013-05-08 04:04:00,
2013-05-08 00:08:00,58.6,47.7,30.00,SE,142,0.0,0.0,67,0.00,,,0.00,0,Wunderground v.1.15,2013-05-08 04:08:00,
2013-05-08 00:11:00,58.6,47.7,29.99,SE,142,0.0,0.0,67,0.00,,,0.00,0,Wunderground v.1.15,2013-05-08 04:11:00,
2013-05-08 00:16:00,58.5,48.0,29.99,SE,142,0.0,0.0,68,0.00,,,0.00,0,Wunderground v.1.15,2013-05-08 04:16:00,
2013-05-08 00:21:00,58.4,47.9,29.99,SE,142,0.0,0.0,68,0.00,,,0.00,0,Wunderground v.1.15,2013-05-08 04:21:00,
2013-05-08 00:27:00,57.9,48.6,29.99,SE,142,0.0,0.0,71,0.00,,,0.00,0,Wunderground v.1.15,2013-05-08 04:27:00,
2013-05-08 00:30:00,58.4,49.4,29.99,North,-999,0.0,0.0,72,0.00,,,-99.99,0,WeatherLink 6.0.0,2013-05-08 04:30:00,
2013-05-08 00:32:00,57.4,48.4,29.99,SE,142,0.0,0.0,72,0.00,,,0.00,0,Wunderground v.1.15,2013-05-08 04:32:00,
2013-05-08 00:38:00,57.1,47.8,29.99,SE,142,0.0,0.0,71,0.00,,,0.00,0,Wunderground v.1.15,2013-05-08 04:38:00,
2013-05-08 00:44:00,57.1,47.8,29.99,SE,142,0.0,0.0,71,0.00,,,0.00,0,Wunderground v.1.15,2013-05-08 04:44:00,
2013-05-08 00:49:00,56.9,48.3,29.99,SE,142,0.0,0.0,73,0.00,,,0.00,0,Wunderground v.1.15,2013-05-08 04:49:00,
2013-05-08 00:54:00,56.5,48.7,29.99,SE,142,0.0,0.0,75,0.00,,,0.00,0,Wunderground v.1.15,2013-05-08 04:54:00,
2013-05-08 01:00:00,56.1,49.0,29.99,SE,142,0.0,0.0,77,0.00,,,0.00,0,Wunderground v.1.15,2013-05-08 05:00:00,
2013-05-08 01:06:00,55.6,48.5,29.99,SE,142,0.0,0.0,77,0.00,,,0.00,0,Wunderground v.1.15,2013-05-08 05:06:00,
2013-05-08 01:12:00,55.3,48.2,29.99,SE,142,0.0,0.0,77,0.00,,,0.00,0,Wunderground v.1.15,2013-05-08 05:12:00,
2013-05-08 01:17:00,55.1,48.7,29.99,SE,142,0.0,0.0,79,0.00,,,0.00,0,Wunderground v.1.15,2013-05-08 05:17:00,
2013-05-08 01:22:00,54.8,48.4,29.99,SE,142,0.0,0.0,79,0.00,,,0.00,0,Wunderground v.1.15,2013-05-08 05:22:00,
2013-05-08 01:28:00,54.6,48.2,29.99,SE,142,0.0,0.0,79,0.00,,,0.00,0,Wunderground v.1.15,2013-05-08 05:28:00,
2013-05-08 01:30:00,55.2,48.8,29.98,North,-999,0.0,0.0,79,0.00,,,-99.99,0,WeatherLink 6.0.0,2013-05-08 05:30:00,
2013-05-08 01:33:00,54.5,48.1,29.98,SE,142,0.0,0.0,79,0.00,,,0.00,0,Wunderground v.1.15,2013-05-08 05:33:00,
2013-05-08 01:38:00,54.4,48.4,29.98,SE,142,0.0,0.0,80,0.00,,,0.00,0,Wunderground v.1.15,2013-05-08 05:38:00,
2013-05-08 01:43:00,54.4,48.4,29.98,SE,142,0.0,0.0,80,0.00,,,0.00,0,Wunderground v.1.15,2013-05-08 05:43:00,
2013-05-08 01:49:00,54.3,48.3,29.98,SE,142,0.0,0.0,80,0.00,,,0.00,0,Wunderground v.1.15,2013-05-08 05:49:00,
2013-05-08 01:54:00,54.1,48.1,29.98,SE,142,0.0,0.0,80,0.00,,,0.00,0,Wunderground v.1.15,2013-05-08 05:54:00,
2013-05-08 01:59:00,54.0,48.3,29.97,SE,142,0.0,0.0,81,0.00,,,0.00,0,Wunderground v.1.15,2013-05-08 05:59:00,
2013-05-08 02:00:00,54.3,48.6,29.97,North,-999,0.0,0.0,81,0.00,,,-99.99,0,WeatherLink 6.0.0,2013-05-08 06:00:00,
2013-05-08 02:04:00,53.9,48.2,29.97,SE,142,0.0,0.0,81,0.00,,,0.00,0,Wunderground v.1.15,2013-05-08 06:04:00,
2013-05-08 02:09:00,53.8,48.1,29.97,SE,142,0.0,1.0,81,0.00,,,0.00,0,Wunderground v.1.15,2013-05-08 06:09:00,
2013-05-08 02:14:00,53.7,48.3,29.97,SE,142,0.0,1.0,82,0.00,,,0.00,0,Wunderground v.1.15,2013-05-08 06:14:00,
2013-05-08 02:19:00,53.5,48.1,29.97,SE,142,0.0,1.0,82,0.00,,,0.00,0,Wunderground v.1.15,2013-05-08 06:19:00,
2013-05-08 02:24:00,53.4,48.0,29.97,SE,142,0.0,0.0,82,0.00,,,0.00,0,Wunderground v.1.15,2013-05-08 06:24:00,
2013-05-08 02:29:00,53.3,47.9,29.97,SE,142,0.0,0.0,82,0.00,,,0.00,0,Wunderground v.1.15,2013-05-08 06:29:00,
2013-05-08 02:30:00,53.6,48.2,29.97,SE,135,0.0,1.0,82,0.00,,,-99.99,0,WeatherLink 6.0.0,2013-05-08 06:30:00,
2013-05-08 02:34:00,53.2,47.8,29.96,SE,142,0.0,0.0,82,0.00,,,0.00,0,Wunderground v.1.15,2013-05-08 06:34:00,
2013-05-08 02:39:00,53.2,47.8,29.96,SE,142,0.0,0.0,82,0.00,,,0.00,0,Wunderground v.1.15,2013-05-08 06:39:00,
2013-05-08 02:44:00,53.2,47.5,29.96,SE,142,0.0,0.0,81,0.00,,,0.00,0,Wunderground v.1.15,2013-05-08 06:44:00,
2013-05-08 02:49:00,53.1,47.4,29.96,SE,142,0.0,0.0,81,0.00,,,0.00,0,Wunderground v.1.15,2013-05-08 06:49:00,
2013-05-08 02:54:00,53.1,47.7,29.96,SE,142,0.0,1.0,82,0.00,,,0.00,0,Wunderground v.1.15,2013-05-08 06:54:00,
2013-05-08 02:59:00,52.9,47.6,29.96,SE,142,0.0,1.0,82,0.00,,,0.00,0,Wunderground v.1.15,2013-05-08 06:59:00,
2013-05-08 03:00:00,53.1,47.7,29.96,SE,135,0.0,1.0,82,0.00,,,-99.99,0,WeatherLink 6.0.0,2013-05-08 07:00:00,
2013-05-08 03:04:00,52.8,47.5,29.96,SE,142,0.0,2.0,82,0.00,,,0.00,0,Wunderground v.1.15,2013-05-08 07:04:00,
2013-05-08 03:09:00,52.8,47.5,29.96,SE,142,0.0,2.0,82,0.00,,,0.00,0,Wunderground v.1.15,2013-05-08 07:09:00,
2013-05-08 03:14:00,52.8,48.1,29.96,SE,142,0.0,0.0,84,0.00,,,0.00,0,Wunderground v.1.15,2013-05-08 07:14:00,
2013-05-08 03:19:00,52.9,48.5,29.96,SE,142,0.0,0.0,85,0.00,,,0.00,0,Wunderground v.1.15,2013-05-08 07:19:00,
2013-05-08 03:24:00,52.8,48.4,29.96,SE,142,0.0,0.0,85,0.00,,,0.00,0,Wunderground v.1.15,2013-05-08 07:24:00,
2013-05-08 03:29:00,52.7,48.3,29.96,SE,142,0.0,0.0,85,0.00,,,0.00,0,Wunderground v.1.15,2013-05-08 07:29:00,
2013-05-08 03:30:00,52.8,48.4,29.96,SE,135,0.0,2.0,85,0.00,,,-99.99,0,WeatherLink 6.0.0,2013-05-08 07:30:00,
2013-05-08 03:34:00,52.6,47.9,29.96,SE,142,0.0,0.0,84,0.00,,,0.00,0,Wunderground v.1.15,2013-05-08 07:34:00,
2013-05-08 03:39:00,52.7,48.3,29.96,SE,142,0.0,0.0,85,0.00,,,0.00,0,Wunderground v.1.15,2013-05-08 07:39:00,
2013-05-08 03:44:00,52.9,48.5,29.96,SE,142,0.0,0.0,85,0.00,,,0.00,0,Wunderground v.1.15,2013-05-08 07:44:00,
2013-05-08 03:49:00,53.0,48.3,29.96,SE,142,0.0,0.0,84,0.00,,,0.00,0,Wunderground v.1.15,2013-05-08 07:49:00,
2013-05-08 03:54:00,53.0,48.3,29.96,SE,142,0.0,0.0,84,0.00,,,0.00,0,Wunderground v.1.15,2013-05-08 07:54:00,
2013-05-08 03:59:00,53.0,48.3,29.96,SE,142,0.0,0.0,84,0.00,,,0.00,0,Wunderground v.1.15,2013-05-08 07:59:00,
2013-05-08 04:00:00,52.9,48.2,29.96,SE,135,0.0,1.0,84,0.00,,,-99.99,0,WeatherLink 6.0.0,2013-05-08 08:00:00,
2013-05-08 04:04:00,53.1,48.4,29.96,SE,142,0.0,0.0,84,0.00,,,0.00,0,Wunderground v.1.15,2013-05-08 08:04:00,
2013-05-08 04:09:00,53.1,48.4,29.96,SE,142,0.0,0.0,84,0.00,,,0.00,0,Wunderground v.1.15,2013-05-08 08:09:00,
2013-05-08 04:14:00,53.1,48.4,29.96,SE,142,0.0,0.0,84,0.00,,,0.00,0,Wunderground v.1.15,2013-05-08 08:14:00,
2013-05-08 04:19:00,53.0,48.3,29.96,SE,142,0.0,0.0,84,0.00,,,0.00,0,Wunderground v.1.15,2013-05-08 08:19:00,
2013-05-08 04:24:00,53.0,48.3,29.96,SE,142,0.0,0.0,84,0.00,,,0.00,0,Wunderground v.1.15,2013-05-08 08:24:00,
2013-05-08 04:29:00,53.0,48.6,29.96,SE,142,0.0,0.0,85,0.00,,,0.00,0,Wunderground v.1.15,2013-05-08 08:29:00,
2013-05-08 04:30:00,53.1,48.7,29.96,North,-999,0.0,0.0,85,0.00,,,-99.99,0,WeatherLink 6.0.0,2013-05-08 08:30:00,
2013-05-08 04:34:00,52.8,48.4,29.96,SE,142,0.0,0.0,85,0.00,,,0.00,0,Wunderground v.1.15,2013-05-08 08:34:00,
2013-05-08 04:39:00,52.8,48.4,29.96,SE,142,0.0,0.0,85,0.00,,,0.00,0,Wunderground v.1.15,2013-05-08 08:39:00,
2013-05-08 04:44:00,52.8,48.4,29.96,SE,142,0.0,0.0,85,0.00,,,0.00,0,Wunderground v.1.15,2013-05-08 08:44:00,
2013-05-08 04:49:00,52.6,48.2,29.96,SE,142,0.0,0.0,85,0.00,,,0.00,0,Wunderground v.1.15,2013-05-08 08:49:00,
2013-05-08 04:54:00,52.4,48.0,29.96,SE,142,0.0,0.0,85,0.00,,,0.00,0,Wunderground v.1.15,2013-05-08 08:54:00,
2013-05-08 04:59:00,52.3,48.2,29.95,SE,142,0.0,0.0,86,0.00,,,0.00,0,Wunderground v.1.15,2013-05-08 08:59:00,
2013-05-08 05:00:00,52.6,48.5,29.95,SE,135,0.0,1.0,86,0.00,,,-99.99,0,WeatherLink 6.0.0,2013-05-08 09:00:00,
2013-05-08 05:04:00,52.4,48.6,29.96,SE,142,0.0,1.0,87,0.00,,,0.00,0,Wunderground v.1.15,2013-05-08 09:04:00,
2013-05-08 05:09:00,52.4,48.9,29.96,SE,142,0.0,1.0,88,0.00,,,0.00,0,Wunderground v.1.15,2013-05-08 09:09:00,
2013-05-08 05:14:00,52.4,48.9,29.95,SE,142,0.0,0.0,88,0.00,,,0.00,0,Wunderground v.1.15,2013-05-08 09:14:00,
2013-05-08 05:19:00,52.5,48.7,29.95,SE,142,0.0,0.0,87,0.00,,,0.00,0,Wunderground v.1.15,2013-05-08 09:19:00,
2013-05-08 05:24:00,52.6,48.8,29.95,SE,142,0.0,0.0,87,0.00,,,0.00,0,Wunderground v.1.15,2013-05-08 09:24:00,
2013-05-08 05:29:00,52.6,48.8,29.95,SE,142,0.0,0.0,87,0.00,,,0.00,0,Wunderground v.1.15,2013-05-08 09:29:00,
2013-05-08 05:30:00,52.5,48.7,29.95,North,-999,0.0,0.0,87,0.00,,,-99.99,0,WeatherLink 6.0.0,2013-05-08 09:30:00,
2013-05-08 05:34:00,52.7,48.9,29.95,SE,142,0.0,1.0,87,0.00,,,0.00,0,Wunderground v.1.15,2013-05-08 09:34:00,
2013-05-08 05:39:00,52.8,49.0,29.95,SE,142,0.0,1.0,87,0.00,,,0.00,0,Wunderground v.1.15,2013-05-08 09:39:00,
2013-05-08 05:44:00,52.8,48.7,29.95,SE,142,0.0,2.0,86,0.00,,,0.00,0,Wunderground v.1.15,2013-05-08 09:44:00,
2013-05-08 05:49:00,52.9,48.5,29.95,SE,142,0.0,2.0,85,0.00,,,0.00,0,Wunderground v.1.15,2013-05-08 09:49:00,
2013-05-08 05:54:00,52.8,48.4,29.95,SE,142,0.0,0.0,85,0.00,,,0.00,0,Wunderground v.1.15,2013-05-08 09:54:00,
2013-05-08 05:59:00,52.7,48.0,29.95,SE,142,0.0,0.0,84,0.00,,,0.00,0,Wunderground v.1.15,2013-05-08 09:59:00,
2013-05-08 06:00:00,52.8,48.1,29.95,SE,135,0.0,2.0,84,0.00,,,-99.99,0,WeatherLink 6.0.0,2013-05-08 10:00:00,
2013-05-08 06:04:00,52.8,48.4,29.95,SE,142,0.0,1.0,85,0.00,,,0.00,0,Wunderground v.1.15,2013-05-08 10:04:00,
2013-05-08 06:09:00,52.8,48.4,29.95,SE,142,0.0,1.0,85,0.00,,,0.00,0,Wunderground v.1.15,2013-05-08 10:09:00,
2013-05-08 06:14:00,52.6,48.2,29.95,SE,142,0.0,0.0,85,0.00,,,0.00,0,Wunderground v.1.15,2013-05-08 10:14:00,
2013-05-08 06:19:00,52.5,48.1,29.95,SE,142,0.0,0.0,85,0.00,,,0.00,0,Wunderground v.1.15,2013-05-08 10:19:00,
2013-05-08 06:24:00,52.4,47.7,29.95,SE,142,0.0,0.0,84,0.00,,,0.00,5,Wunderground v.1.15,2013-05-08 10:24:00,
2013-05-08 06:29:00,52.4,47.7,29.95,SE,142,0.0,0.0,84,0.00,,,0.00,7,Wunderground v.1.15,2013-05-08 10:29:00,
2013-05-08 06:30:00,52.6,47.9,29.95,SE,135,0.0,1.0,84,0.00,,,-99.99,2,WeatherLink 6.0.0,2013-05-08 10:30:00,
2013-05-08 06:34:00,52.4,48.0,29.95,SE,142,0.0,0.0,85,0.00,,,0.00,9,Wunderground v.1.15,2013-05-08 10:34:00,
2013-05-08 06:39:00,52.4,48.0,29.95,SE,142,0.0,0.0,85,0.00,,,0.00,14,Wunderground v.1.15,2013-05-08 10:39:00,
2013-05-08 06:44:00,52.4,48.0,29.95,SE,142,0.0,0.0,85,0.00,,,0.00,19,Wunderground v.1.15,2013-05-08 10:44:00,
2013-05-08 06:49:00,52.4,48.0,29.96,SE,142,0.0,0.0,85,0.00,,,0.00,21,Wunderground v.1.15,2013-05-08 10:49:00,
2013-05-08 06:54:00,52.5,48.1,29.96,SE,142,0.0,0.0,85,0.00,,,0.00,32,Wunderground v.1.15,2013-05-08 10:54:00,
2013-05-08 06:59:00,52.7,48.6,29.96,SE,142,0.0,0.0,86,0.00,,,0.00,39,Wunderground v.1.15,2013-05-08 10:59:00,
2013-05-08 07:00:00,52.5,48.4,29.96,North,-999,0.0,0.0,86,0.00,,,-99.99,22,WeatherLink 6.0.0,2013-05-08 11:00:00,
2013-05-08 07:04:00,52.8,48.7,29.96,SE,142,0.0,0.0,86,0.00,,,0.00,47,Wunderground v.1.15,2013-05-08 11:04:00,
2013-05-08 07:09:00,53.1,49.0,29.96,SE,142,0.0,1.0,86,0.00,,,0.00,58,Wunderground v.1.15,2013-05-08 11:09:00,
2013-05-08 07:14:00,53.4,48.7,29.97,South,184,0.0,3.0,84,0.00,,,0.00,65,Wunderground v.1.15,2013-05-08 11:14:00,
2013-05-08 07:19:00,53.9,48.9,29.97,WNW,284,1.0,4.0,83,0.00,,,0.00,60,Wunderground v.1.15,2013-05-08 11:19:00,
2013-05-08 07:24:00,54.3,48.9,29.97,WNW,284,1.0,2.0,82,0.00,,,0.00,56,Wunderground v.1.15,2013-05-08 11:24:00,
2013-05-08 07:29:00,54.7,49.0,29.97,WNW,284,1.0,3.0,81,0.00,,,0.00,60,Wunderground v.1.15,2013-05-08 11:29:00,
2013-05-08 07:30:00,53.6,47.2,29.97,WNW,292,1.0,4.0,79,0.00,,,-99.99,58,WeatherLink 6.0.0,2013-05-08 11:30:00,
2013-05-08 07:34:00,55.1,48.7,29.97,WNW,284,1.0,3.0,79,0.00,,,0.00,65,Wunderground v.1.15,2013-05-08 11:34:00,
2013-05-08 07:39:00,55.6,49.2,29.97,WNW,292,1.0,4.0,79,0.00,,,0.00,74,Wunderground v.1.15,2013-05-08 11:39:00,
2013-05-08 07:44:00,56.0,48.2,29.97,WNW,292,1.0,5.0,75,0.00,,,0.00,77,Wunderground v.1.15,2013-05-08 11:44:00,
2013-05-08 07:49:00,56.5,48.7,29.97,WNW,303,1.0,5.0,75,0.00,,,0.00,86,Wunderground v.1.15,2013-05-08 11:49:00,
2013-05-08 07:54:00,57.0,48.1,29.97,West,280,2.0,6.0,72,0.00,,,0.00,98,Wunderground v.1.15,2013-05-08 11:54:00,
2013-05-08 07:59:00,57.6,47.5,29.97,NW,322,3.0,6.0,69,0.00,,,0.00,114,Wunderground v.1.15,2013-05-08 11:59:00,
2013-05-08 08:00:00,56.2,46.2,29.97,WNW,292,2.0,7.0,69,0.00,,,-99.99,83,WeatherLink 6.0.0,2013-05-08 12:00:00,
2013-05-08 08:04:00,58.0,47.5,29.97,WNW,302,4.0,7.0,68,0.00,,,0.00,141,Wunderground v.1.15,2013-05-08 12:04:00,
2013-05-08 08:09:00,58.5,47.2,29.97,WNW,290,3.0,7.0,66,0.00,,,0.00,148,Wunderground v.1.15,2013-05-08 12:09:00,
2013-05-08 08:14:00,58.8,46.6,29.97,West,269,3.0,7.0,64,0.00,,,0.00,141,Wunderground v.1.15,2013-05-08 12:14:00,
2013-05-08 08:19:00,59.1,46.5,29.97,WNW,299,3.0,10.0,63,0.00,,,0.00,141,Wunderground v.1.15,2013-05-08 12:19:00,
2013-05-08 08:24:00,59.3,46.3,29.97,WNW,300,7.0,7.0,62,0.00,,,0.00,160,Wunderground v.1.15,2013-05-08 12:24:00,
2013-05-08 08:29:00,59.6,46.1,29.97,North,350,3.0,8.0,61,0.00,,,0.00,197,Wunderground v.1.15,2013-05-08 12:29:00,
2013-05-08 08:30:00,58.8,45.4,29.97,WNW,292,3.0,10.0,61,0.00,,,-99.99,150,WeatherLink 6.0.0,2013-05-08 12:30:00,
2013-05-08 08:34:00,59.9,46.4,29.97,NW,307,1.0,5.0,61,0.00,,,0.00,220,Wunderground v.1.15,2013-05-08 12:34:00,
2013-05-08 08:39:00,60.4,46.4,29.97,North,9,0.0,5.0,60,0.00,,,0.00,220,Wunderground v.1.15,2013-05-08 12:39:00,
2013-05-08 08:44:00,60.9,46.0,29.97,NNE,28,4.0,6.0,58,0.00,,,0.00,443,Wunderground v.1.15,2013-05-08 12:44:00,
2013-05-08 08:49:00,61.5,45.2,29.98,NW,321,4.0,10.0,55,0.00,,,0.00,181,Wunderground v.1.15,2013-05-08 12:49:00,
2013-05-08 08:54:00,61.6,45.7,29.98,NNE,23,3.0,5.0,56,0.00,,,0.00,174,Wunderground v.1.15,2013-05-08 12:54:00,
2013-05-08 08:59:00,61.7,45.8,29.98,NNW,332,3.0,6.0,56,0.00,,,0.00,450,Wunderground v.1.15,2013-05-08 12:59:00,
2013-05-08 09:00:00,60.9,44.6,29.98,North,0,3.0,10.0,55,0.00,,,-99.99,255,WeatherLink 6.0.0,2013-05-08 13:00:00,
2013-05-08 09:04:00,62.1,46.2,29.98,NNW,333,3.0,5.0,56,0.00,,,0.00,506,Wunderground v.1.15,2013-05-08 13:04:00,
2013-05-08 09:09:00,62.6,46.7,29.98,NNW,328,0.0,5.0,56,0.00,,,0.00,448,Wunderground v.1.15,2013-05-08 13:09:00,
2013-05-08 09:14:00,63.6,47.1,29.98,NW,326,0.0,3.0,55,0.00,,,0.00,515,Wunderground v.1.15,2013-05-08 13:14:00,
2013-05-08 09:19:00,64.4,46.9,29.98,North,360,2.0,6.0,53,0.00,,,0.00,520,Wunderground v.1.15,2013-05-08 13:19:00,
2013-05-08 09:24:00,65.3,47.7,29.98,East,87,1.0,5.0,53,0.00,,,0.00,534,Wunderground v.1.15,2013-05-08 13:24:00,
2013-05-08 09:29:00,66.3,48.1,29.98,NW,315,1.0,5.0,52,0.00,,,0.00,548,Wunderground v.1.15,2013-05-08 13:29:00,
2013-05-08 09:30:00,63.8,45.3,29.98,NNW,337,1.0,6.0,51,0.00,,,-99.99,489,WeatherLink 6.0.0,2013-05-08 13:30:00,
2013-05-08 09:34:00,67.1,47.8,29.98,NW,323,0.0,4.0,50,0.00,,,0.00,561,Wunderground v.1.15,2013-05-08 13:34:00,
2013-05-08 09:39:00,68.0,47.6,29.98,NW,323,1.0,4.0,48,0.00,,,0.00,584,Wunderground v.1.15,2013-05-08 13:39:00,
2013-05-08 09:44:00,68.7,47.6,29.98,North,10,3.0,6.0,47,0.00,,,0.00,599,Wunderground v.1.15,2013-05-08 13:44:00,
2013-05-08 09:49:00,68.8,46.6,29.98,NNE,16,5.0,9.0,45,0.00,,,0.00,615,Wunderground v.1.15,2013-05-08 13:49:00,
2013-05-08 09:54:00,68.8,46.6,29.98,NNE,13,3.0,7.0,45,0.00,,,0.00,629,Wunderground v.1.15,2013-05-08 13:54:00,
2013-05-08 10:00:00,69.1,46.3,29.98,NNW,331,4.0,7.0,44,0.00,,,0.00,645,Wunderground v.1.15,2013-05-08 14:00:00,
2013-05-08 10:05:00,69.3,46.4,29.98,ENE,59,4.0,6.0,44,0.00,,,0.00,652,Wunderground v.1.15,2013-05-08 14:05:00,
2013-05-08 10:10:00,69.4,46.5,29.98,NE,42,4.0,6.0,44,0.00,,,0.00,673,Wunderground v.1.15,2013-05-08 14:10:00,
2013-05-08 10:15:00,69.4,47.1,29.98,NNE,18,7.0,8.0,45,0.00,,,0.00,687,Wunderground v.1.15,2013-05-08 14:15:00,
2013-05-08 10:20:00,69.2,46.9,29.98,NE,49,5.0,8.0,45,0.00,,,0.00,701,Wunderground v.1.15,2013-05-08 14:20:00,
2013-05-08 10:25:00,69.8,48.1,29.98,NNW,328,3.0,5.0,46,0.00,,,0.00,717,Wunderground v.1.15,2013-05-08 14:25:00,
2013-05-08 10:30:00,70.3,48.5,29.98,NNW,334,2.0,9.0,46,0.00,,,0.00,733,Wunderground v.1.15,2013-05-08 14:30:00,
2013-05-08 10:35:00,71.0,48.0,29.98,NNW,332,5.0,7.0,44,0.00,,,0.00,744,Wunderground v.1.15,2013-05-08 14:35:00,
2013-05-08 10:40:00,71.1,48.1,29.98,ENE,57,3.0,7.0,44,0.00,,,0.00,817,Wunderground v.1.15,2013-05-08 14:40:00,
2013-05-08 10:45:00,71.0,48.6,29.98,NE,37,4.0,6.0,45,0.00,,,0.00,770,Wunderground v.1.15,2013-05-08 14:45:00,
2013-05-08 10:50:00,71.3,48.3,29.98,East,82,3.0,7.0,44,0.00,,,0.00,914,Wunderground v.1.15,2013-05-08 14:50:00,
2013-05-08 10:55:00,71.1,48.1,29.98,ENE,68,1.0,8.0,44,0.00,,,0.00,360,Wunderground v.1.15,2013-05-08 14:55:00,
2013-05-08 11:00:00,71.1,48.1,29.98,North,350,4.0,4.0,44,0.00,,,0.00,659,Wunderground v.1.15,2013-05-08 15:00:00,
2013-05-08 11:05:00,72.0,48.3,29.98,North,5,3.0,5.0,43,0.00,,,0.00,675,Wunderground v.1.15,2013-05-08 15:05:00,
2013-05-08 11:10:00,73.3,48.2,29.98,North,10,7.0,7.0,41,0.00,,,0.00,673,Wunderground v.1.15,2013-05-08 15:10:00,
2013-05-08 11:15:00,73.3,48.2,29.98,NE,40,7.0,8.0,41,0.00,,,0.00,578,Wunderground v.1.15,2013-05-08 15:15:00,
2013-05-08 11:20:00,72.6,48.2,29.98,NE,44,0.0,3.0,42,0.00,,,0.00,494,Wunderground v.1.15,2013-05-08 15:20:00,
2013-05-08 11:25:00,72.8,48.4,29.98,NE,40,3.0,5.0,42,0.00,,,0.00,671,Wunderground v.1.15,2013-05-08 15:25:00,
2013-05-08 11:30:00,73.7,49.2,29.98,ENE,71,0.0,2.0,42,0.00,,,0.00,1188,Wunderground v.1.15,2013-05-08 15:30:00,
2013-05-08 11:35:00,75.4,49.4,29.97,North,5,2.0,8.0,40,0.00,,,0.00,1048,Wunderground v.1.15,2013-05-08 15:35:00,
2013-05-08 11:40:00,75.0,48.4,29.97,NW,313,3.0,3.0,39,0.00,,,0.00,970,Wunderground v.1.15,2013-05-08 15:40:00,
2013-05-08 11:45:00,75.1,49.1,29.97,ESE,110,3.0,6.0,40,0.00,,,0.00,930,Wunderground v.1.15,2013-05-08 15:45:00,
2013-05-08 11:50:00,75.7,49.7,29.97,West,281,1.0,4.0,40,0.00,,,0.00,923,Wunderground v.1.15,2013-05-08 15:50:00,
2013-05-08 11:55:00,76.5,49.0,29.97,East,80,1.0,7.0,38,0.00,,,0.00,969,Wunderground v.1.15,2013-05-08 15:55:00,
2013-05-08 12:00:00,75.4,49.4,29.97,NNE,22,3.0,8.0,40,0.00,,,-99.99,985,WeatherLink 6.0.0,2013-05-08 16:00:00,
2013-05-08 12:01:00,75.9,49.8,29.97,NE,52,4.0,6.0,40,0.00,,,0.00,1100,Wunderground v.1.15,2013-05-08 16:01:00,
2013-05-08 12:06:00,76.4,49.6,29.97,ESE,115,0.0,6.0,39,0.00,,,0.00,1071,Wunderground v.1.15,2013-05-08 16:06:00,
2013-05-08 12:11:00,77.3,49.0,29.97,NW,319,2.0,3.0,37,0.00,,,0.00,1071,Wunderground v.1.15,2013-05-08 16:11:00,
2013-05-08 12:16:00,76.7,49.2,29.97,NE,38,0.0,4.0,38,0.00,,,0.00,1083,Wunderground v.1.15,2013-05-08 16:16:00,
2013-05-08 12:21:00,76.9,50.1,29.97,NNE,21,6.0,6.0,39,0.00,,,0.00,1060,Wunderground v.1.15,2013-05-08 16:21:00,
2013-05-08 12:26:00,76.8,49.3,29.97,NNE,32,3.0,8.0,38,0.00,,,0.00,1069,Wunderground v.1.15,2013-05-08 16:26:00,
2013-05-08 12:30:00,76.7,48.5,29.96,NE,45,3.0,9.0,37,0.00,,,-99.99,998,WeatherLink 6.0.0,2013-05-08 16:30:00,
2013-05-08 12:31:00,76.9,49.4,29.96,NNW,336,1.0,6.0,38,0.00,,,0.00,1030,Wunderground v.1.15,2013-05-08 16:31:00,
2013-05-08 12:36:00,77.2,48.9,29.96,NNW,346,5.0,8.0,37,0.00,,,0.00,990,Wunderground v.1.15,2013-05-08 16:36:00,
2013-05-08 12:41:00,78.0,50.3,29.96,NNW,346,3.0,3.0,38,0.00,,,0.00,967,Wunderground v.1.15,2013-05-08 16:41:00,
2013-05-08 12:46:00,77.4,48.3,29.95,NE,35,6.0,9.0,36,0.00,,,0.00,949,Wunderground v.1.15,2013-05-08 16:46:00,
2013-05-08 12:51:00,76.7,48.5,29.95,NE,53,3.0,11.0,37,0.00,,,0.00,933,Wunderground v.1.15,2013-05-08 16:51:00,
2013-05-08 12:56:00,76.8,47.8,29.95,NNE,28,9.0,11.0,36,0.00,,,0.00,942,Wunderground v.1.15,2013-05-08 16:56:00,
2013-05-08 13:00:00,77.1,48.1,29.95,NE,45,4.0,11.0,36,0.00,,,-99.99,963,WeatherLink 6.0.0,2013-05-08 17:00:00,
2013-05-08 13:01:00,76.6,47.6,29.95,NE,44,3.0,5.0,36,0.00,,,0.00,939,Wunderground v.1.15,2013-05-08 17:01:00,
2013-05-08 13:06:00,76.9,47.9,29.95,North,5,8.0,16.0,36,0.00,,,0.00,942,Wunderground v.1.15,2013-05-08 17:06:00,
2013-05-08 13:11:00,77.1,48.1,29.95,North,355,4.0,8.0,36,0.00,,,0.00,914,Wunderground v.1.15,2013-05-08 17:11:00,
2013-05-08 13:16:00,77.2,46.7,29.95,ENE,59,4.0,9.0,34,0.00,,,0.00,958,Wunderground v.1.15,2013-05-08 17:16:00,
2013-05-08 13:21:00,77.5,46.9,29.94,NE,44,4.0,10.0,34,0.00,,,0.00,962,Wunderground v.1.15,2013-05-08 17:21:00,
2013-05-08 13:26:00,77.4,46.8,29.94,NNE,30,8.0,17.0,34,0.00,,,0.00,984,Wunderground v.1.15,2013-05-08 17:26:00,
2013-05-08 13:30:00,77.1,46.6,29.94,NNE,22,6.0,18.0,34,0.00,,,-99.99,948,WeatherLink 6.0.0,2013-05-08 17:30:00,
2013-05-08 13:31:00,76.9,47.2,29.94,NE,46,2.0,11.0,35,0.00,,,0.00,974,Wunderground v.1.15,2013-05-08 17:31:00,
2013-05-08 13:36:00,77.3,48.3,29.94,NNE,26,9.0,11.0,36,0.00,,,0.00,954,Wunderground v.1.15,2013-05-08 17:36:00,
2013-05-08 13:41:00,77.7,47.1,29.94,ENE,59,8.0,9.0,34,0.00,,,0.00,489,Wunderground v.1.15,2013-05-08 17:41:00,
2013-05-08 13:46:00,77.8,47.2,29.94,NE,49,3.0,11.0,34,0.00,,,0.00,863,Wunderground v.1.15,2013-05-08 17:46:00,
2013-05-08 13:51:00,78.2,46.7,29.94,North,5,9.0,11.0,33,0.00,,,0.00,863,Wunderground v.1.15,2013-05-08 17:51:00,
2013-05-08 13:56:00,78.6,47.1,29.94,NNE,17,8.0,11.0,33,0.00,,,0.00,1030,Wunderground v.1.15,2013-05-08 17:56:00,
2013-05-08 14:00:00,77.8,46.4,29.94,NE,45,5.0,11.0,33,0.00,,,-99.99,951,WeatherLink 6.0.0,2013-05-08 18:00:00,
2013-05-08 14:01:00,78.2,46.7,29.94,NNW,337,6.0,8.0,33,0.00,,,0.00,972,Wunderground v.1.15,2013-05-08 18:01:00,
2013-05-08 14:07:00,78.3,46.0,29.93,North,350,3.0,8.0,32,0.00,,,0.00,220,Wunderground v.1.15,2013-05-08 18:07:00,
2013-05-08 14:12:00,78.5,47.0,29.93,NE,38,5.0,8.0,33,0.00,,,0.00,1116,Wunderground v.1.15,2013-05-08 18:12:00,
2013-05-08 14:17:00,79.1,47.5,29.93,NNW,340,4.0,9.0,33,0.00,,,0.00,285,Wunderground v.1.15,2013-05-08 18:17:00,
2013-05-08 14:22:00,78.5,47.8,29.93,ENE,62,3.0,7.0,34,0.00,,,0.00,385,Wunderground v.1.15,2013-05-08 18:22:00,
2013-05-08 14:27:00,78.4,46.1,29.93,WNW,290,2.0,8.0,32,0.00,,,0.00,1088,Wunderground v.1.15,2013-05-08 18:27:00,
2013-05-08 14:30:00,78.5,47.0,29.93,North,0,3.0,10.0,33,0.00,,,-99.99,545,WeatherLink 6.0.0,2013-05-08 18:30:00,
2013-05-08 14:32:00,78.6,47.1,29.93,NW,317,3.0,10.0,33,0.00,,,0.00,236,Wunderground v.1.15,2013-05-08 18:32:00,
2013-05-08 14:37:00,77.6,47.0,29.93,North,5,4.0,10.0,34,0.00,,,0.00,250,Wunderground v.1.15,2013-05-08 18:37:00,
2013-05-08 14:42:00,77.1,46.6,29.93,North,355,0.0,5.0,34,0.00,,,0.00,197,Wunderground v.1.15,2013-05-08 18:42:00,
2013-05-08 14:47:00,77.0,46.5,29.92,NE,39,6.0,6.0,34,0.00,,,0.00,176,Wunderground v.1.15,2013-05-08 18:47:00,
2013-05-08 14:52:00,76.7,46.2,29.92,WNW,295,0.0,5.0,34,0.00,,,0.00,148,Wunderground v.1.15,2013-05-08 18:52:00,
2013-05-08 14:57:00,76.6,46.1,29.92,NW,324,2.0,5.0,34,0.00,,,0.00,130,Wunderground v.1.15,2013-05-08 18:57:00,
2013-05-08 15:00:00,77.2,50.3,29.92,North,0,3.0,9.0,39,0.00,,,-99.99,183,WeatherLink 6.0.0,2013-05-08 19:00:00,
2013-05-08 15:02:00,76.5,49.7,29.92,NNW,328,0.0,5.0,39,0.00,,,0.00,148,Wunderground v.1.15,2013-05-08 19:02:00,
2013-05-08 15:07:00,76.1,49.3,29.92,NNE,17,4.0,5.0,39,0.00,,,0.00,176,Wunderground v.1.15,2013-05-08 19:07:00,
2013-05-08 15:12:00,75.7,49.7,29.92,NNE,17,2.0,4.0,40,0.00,,,0.00,216,Wunderground v.1.15,2013-05-08 19:12:00,
2013-05-08 15:17:00,75.6,48.2,29.92,North,360,3.0,6.0,38,0.00,,,0.00,246,Wunderground v.1.15,2013-05-08 19:17:00,
2013-05-08 15:22:00,75.8,49.1,29.92,NNW,345,1.0,2.0,39,0.00,,,0.00,276,Wunderground v.1.15,2013-05-08 19:22:00,
2013-05-08 15:27:00,76.6,48.4,29.92,West,275,0.0,6.0,37,0.00,,,0.00,399,Wunderground v.1.15,2013-05-08 19:27:00,
2013-05-08 15:30:00,76.1,46.5,29.92,NNW,337,2.0,7.0,35,0.00,,,-99.99,227,WeatherLink 6.0.0,2013-05-08 19:30:00,
2013-05-08 15:32:00,77.4,46.8,29.92,WNW,284,0.0,3.0,34,0.00,,,0.00,429,Wunderground v.1.15,2013-05-08 19:32:00,
2013-05-08 15:37:00,78.1,47.4,29.92,North,355,1.0,4.0,34,0.00,,,0.00,366,Wunderground v.1.15,2013-05-08 19:37:00,
2013-05-08 15:42:00,78.2,46.7,29.92,West,269,2.0,8.0,33,0.00,,,0.00,281,Wunderground v.1.15,2013-05-08 19:42:00,
2013-05-08 15:47:00,77.8,46.4,29.92,West,277,2.0,8.0,33,0.00,,,0.00,151,Wunderground v.1.15,2013-05-08 19:47:00,
2013-05-08 15:52:00,77.2,46.7,29.92,WNW,292,3.0,5.0,34,0.00,,,0.00,107,Wunderground v.1.15,2013-05-08 19:52:00,
2013-05-08 15:57:00,76.7,49.9,29.92,West,278,1.0,6.0,39,0.00,,,0.00,77,Wunderground v.1.15,2013-05-08 19:57:00,
2013-05-08 16:00:00,77.6,51.4,29.92,West,270,2.0,8.0,40,0.00,,,-99.99,176,WeatherLink 6.0.0,2013-05-08 20:00:00,
2013-05-08 16:02:00,76.3,50.9,29.92,West,279,0.0,4.0,41,0.00,,,0.00,67,Wunderground v.1.15,2013-05-08 20:02:00,
2013-05-08 16:07:00,75.4,49.4,29.92,West,279,2.0,4.0,40,0.00,,,0.00,74,Wunderground v.1.15,2013-05-08 20:07:00,
2013-05-08 16:12:00,74.9,49.6,29.91,West,279,1.0,3.0,41,0.00,,,0.00,88,Wunderground v.1.15,2013-05-08 20:12:00,
2013-05-08 16:17:00,74.6,50.6,29.91,West,279,0.0,3.0,43,0.00,,,0.00,105,Wunderground v.1.15,2013-05-08 20:17:00,
2013-05-08 16:22:00,74.1,50.8,29.92,NNE,28,5.0,13.0,44,0.00,,,0.00,114,Wunderground v.1.15,2013-05-08 20:22:00,
2013-05-08 16:27:00,73.6,48.4,29.92,East,92,0.0,13.0,41,0.00,,,0.00,127,Wunderground v.1.15,2013-05-08 20:27:00,
2013-05-08 16:30:00,74.7,50.1,29.91,West,270,2.0,13.0,42,0.00,,,-99.99,98,WeatherLink 6.0.0,2013-05-08 20:30:00,
2013-05-08 16:32:00,73.5,49.6,29.91,ENE,70,1.0,5.0,43,0.00,,,0.00,151,Wunderground v.1.15,2013-05-08 20:32:00,
2013-05-08 16:37:00,73.5,50.2,29.91,ESE,112,4.0,7.0,44,0.00,,,0.00,183,Wunderground v.1.15,2013-05-08 20:37:00,
2013-05-08 16:42:00,73.5,50.2,29.91,NE,50,0.0,4.0,44,0.00,,,0.00,204,Wunderground v.1.15,2013-05-08 20:42:00,
2013-05-08 16:47:00,73.6,48.4,29.91,East,100,5.0,7.0,41,0.00,,,0.00,230,Wunderground v.1.15,2013-05-08 20:47:00,
2013-05-08 16:52:00,73.5,49.0,29.91,SSW,192,2.0,8.0,42,0.00,,,0.00,236,Wunderground v.1.15,2013-05-08 20:52:00,
2013-05-08 16:57:00,73.1,52.8,29.91,SE,143,6.0,9.0,49,0.00,,,0.00,262,Wunderground v.1.15,2013-05-08 20:57:00,
2013-05-08 17:00:00,73.4,53.1,29.91,SE,135,3.0,9.0,49,0.00,,,-99.99,213,WeatherLink 6.0.0,2013-05-08 21:00:00,
2013-05-08 17:02:00,72.6,52.3,29.91,SE,132,2.0,11.0,49,0.00,,,0.00,281,Wunderground v.1.15,2013-05-08 21:02:00,
2013-05-08 17:07:00,72.7,53.0,29.91,SSE,155,5.0,11.0,50,0.00,,,0.00,608,Wunderground v.1.15,2013-05-08 21:07:00,
2013-05-08 17:12:00,73.1,53.9,29.91,SSW,195,0.0,5.0,51,0.00,,,0.00,404,Wunderground v.1.15,2013-05-08 21:12:00,
2013-05-08 17:17:00,73.2,53.4,29.91,SE,125,5.0,7.0,50,0.00,,,0.00,234,Wunderground v.1.15,2013-05-08 21:17:00,
2013-05-08 17:22:00,73.1,53.9,29.91,SE,140,6.0,7.0,51,0.00,,,0.00,202,Wunderground v.1.15,2013-05-08 21:22:00,
2013-05-08 17:27:00,73.2,52.9,29.91,SE,142,2.0,7.0,49,0.00,,,0.00,216,Wunderground v.1.15,2013-05-08 21:27:00,
2013-05-08 17:30:00,73.0,53.3,29.91,SE,135,3.0,11.0,50,0.00,,,-99.99,262,WeatherLink 6.0.0,2013-05-08 21:30:00,
2013-05-08 17:32:00,73.1,53.4,29.91,SSW,212,2.0,6.0,50,0.00,,,0.00,204,Wunderground v.1.15,2013-05-08 21:32:00,
2013-05-08 17:37:00,73.1,53.9,29.91,SSW,192,2.0,6.0,51,0.00,,,0.00,216,Wunderground v.1.15,2013-05-08 21:37:00,
2013-05-08 17:42:00,73.4,54.2,29.91,South,186,0.0,4.0,51,0.00,,,0.00,494,Wunderground v.1.15,2013-05-08 21:42:00,
2013-05-08 17:47:00,74.0,53.6,29.91,SSW,201,3.0,4.0,49,0.00,,,0.00,220,Wunderground v.1.15,2013-05-08 21:47:00,
2013-05-08 17:52:00,74.0,53.1,29.91,SSW,201,0.0,1.0,48,0.00,,,0.00,213,Wunderground v.1.15,2013-05-08 21:52:00,
2013-05-08 17:57:00,74.5,54.1,29.91,SSW,195,1.0,4.0,49,0.00,,,0.00,332,Wunderground v.1.15,2013-05-08 21:57:00,
2013-05-08 18:00:00,73.7,52.2,29.91,SSW,202,2.0,7.0,47,0.00,,,-99.99,313,WeatherLink 6.0.0,2013-05-08 22:00:00,
2013-05-08 18:02:00,74.8,53.8,29.91,SE,146,1.0,4.0,48,0.00,,,0.00,459,Wunderground v.1.15,2013-05-08 22:02:00,
2013-05-08 18:07:00,74.9,53.9,29.90,South,181,1.0,8.0,48,0.00,,,0.00,457,Wunderground v.1.15,2013-05-08 22:07:00,
2013-05-08 18:12:00,75.5,55.0,29.90,SSW,200,3.0,4.0,49,0.00,,,0.00,436,Wunderground v.1.15,2013-05-08 22:12:00,
2013-05-08 18:17:00,75.9,51.8,29.90,SW,234,3.0,4.0,43,0.00,,,0.00,287,Wunderground v.1.15,2013-05-08 22:17:00,
2013-05-08 18:22:00,75.5,52.7,29.90,SSW,200,1.0,4.0,45,0.00,,,0.00,135,Wunderground v.1.15,2013-05-08 22:22:00,
2013-05-08 18:27:00,74.9,52.1,29.90,SSW,195,1.0,4.0,45,0.00,,,0.00,165,Wunderground v.1.15,2013-05-08 22:27:00,
2013-05-08 18:30:00,75.2,51.8,29.90,SSW,202,2.0,8.0,44,0.00,,,-99.99,332,WeatherLink 6.0.0,2013-05-08 22:30:00,
2013-05-08 18:32:00,74.5,51.2,29.90,SSW,202,2.0,4.0,44,0.00,,,0.00,128,Wunderground v.1.15,2013-05-08 22:32:00,
2013-05-08 18:37:00,74.0,51.9,29.90,SSW,203,2.0,4.0,46,0.00,,,0.00,100,Wunderground v.1.15,2013-05-08 22:37:00,
2013-05-08 18:42:00,73.7,51.6,29.90,SSW,203,0.0,1.0,46,0.00,,,0.00,93,Wunderground v.1.15,2013-05-08 22:42:00,
2013-05-08 18:47:00,73.3,51.8,29.90,SSW,202,1.0,4.0,47,0.00,,,0.00,90,Wunderground v.1.15,2013-05-08 22:47:00,
2013-05-08 18:52:00,73.0,51.6,29.90,ESE,118,0.0,7.0,47,0.00,,,0.00,83,Wunderground v.1.15,2013-05-08 22:52:00,
2013-05-08 18:57:00,72.6,51.8,29.90,SE,146,0.0,7.0,48,0.00,,,0.00,76,Wunderground v.1.15,2013-05-08 22:57:00,
2013-05-08 19:00:00,73.5,53.2,29.90,SSW,202,1.0,7.0,49,0.00,,,-99.99,93,WeatherLink 6.0.0,2013-05-08 23:00:00,
2013-05-08 19:02:00,72.2,53.1,29.90,SSE,161,1.0,4.0,51,0.00,,,0.00,81,Wunderground v.1.15,2013-05-08 23:02:00,
2013-05-08 19:07:00,72.0,53.4,29.90,SSE,168,1.0,4.0,52,0.00,,,0.00,70,Wunderground v.1.15,2013-05-08 23:07:00,
2013-05-08 19:12:00,71.6,54.1,29.90,SSW,198,0.0,6.0,54,0.00,,,0.00,51,Wunderground v.1.15,2013-05-08 23:12:00,
2013-05-08 19:17:00,71.3,54.3,29.91,SSE,157,0.0,6.0,55,0.00,,,0.00,44,Wunderground v.1.15,2013-05-08 23:17:00,
2013-05-08 19:22:00,71.0,52.5,29.91,East,83,3.0,6.0,52,0.00,,,0.00,51,Wunderground v.1.15,2013-05-08 23:22:00,
2013-05-08 19:27:00,70.7,52.2,29.91,ESE,115,5.0,8.0,52,0.00,,,0.00,47,Wunderground v.1.15,2013-05-08 23:27:00,
2013-05-08 19:30:00,71.5,52.4,29.91,SSE,157,2.0,8.0,51,0.00,,,-99.99,56,WeatherLink 6.0.0,2013-05-08 23:30:00,
2013-05-08 19:32:00,70.4,51.4,29.91,East,98,2.0,8.0,51,0.00,,,0.00,44,Wunderground v.1.15,2013-05-08 23:32:00,
2013-05-08 19:37:00,70.1,51.7,29.91,SE,142,3.0,8.0,52,0.00,,,0.00,39,Wunderground v.1.15,2013-05-08 23:37:00,
2013-05-08 19:42:00,69.7,51.8,29.92,ESE,121,0.0,5.0,53,0.00,,,0.00,35,Wunderground v.1.15,2013-05-08 23:42:00,
2013-05-08 19:47:00,69.5,51.1,29.92,SE,130,4.0,5.0,52,0.00,,,0.00,32,Wunderground v.1.15,2013-05-08 23:47:00,
2013-05-08 19:52:00,69.2,51.3,29.92,SSE,167,1.0,5.0,53,0.00,,,0.00,30,Wunderground v.1.15,2013-05-08 23:52:00,
2013-05-08 19:57:00,69.1,51.8,29.92,SSE,167,0.0,5.0,54,0.00,,,0.00,26,Wunderground v.1.15,2013-05-08 23:57:00,
2013-05-08 20:00:00,69.6,52.7,29.92,SE,135,1.0,7.0,55,0.00,,,-99.99,34,WeatherLink 6.0.0,2013-05-09 00:00:00,
2013-05-08 20:02:00,68.9,52.1,29.92,SSE,167,1.0,2.0,55,0.00,,,0.00,23,Wunderground v.1.15,2013-05-09 00:02:00,
2013-05-08 20:08:00,68.7,51.9,29.92,SSE,167,0.0,2.0,55,0.00,,,0.00,23,Wunderground v.1.15,2013-05-09 00:08:00,
2013-05-08 20:13:00,68.5,52.2,29.92,SSE,167,0.0,2.0,56,0.00,,,0.00,19,Wunderground v.1.15,2013-05-09 00:13:00,
2013-05-08 20:18:00,68.3,52.0,29.92,SSE,167,0.0,2.0,56,0.00,,,0.00,16,Wunderground v.1.15,2013-05-09 00:18:00,
2013-05-08 20:23:00,67.9,52.1,29.92,SSE,167,0.0,1.0,57,0.00,,,0.00,11,Wunderground v.1.15,2013-05-09 00:23:00,
2013-05-08 20:28:00,67.7,51.9,29.92,SSE,167,0.0,2.0,57,0.00,,,0.00,9,Wunderground v.1.15,2013-05-09 00:28:00,
2013-05-08 20:30:00,68.3,52.5,29.92,SSE,157,0.0,3.0,57,0.00,,,-99.99,17,WeatherLink 6.0.0,2013-05-09 00:30:00,
2013-05-08 20:33:00,67.4,51.6,29.92,SSE,167,0.0,0.0,57,0.00,,,0.00,7,Wunderground v.1.15,2013-05-09 00:33:00,
2013-05-08 20:38:00,67.1,52.3,29.92,SSE,167,0.0,0.0,59,0.00,,,0.00,5,Wunderground v.1.15,2013-05-09 00:38:00,
2013-05-08 20:43:00,66.5,52.2,29.92,SSE,167,0.0,0.0,60,0.00,,,0.00,0,Wunderground v.1.15,2013-05-09 00:43:00,
2013-05-08 20:48:00,66.1,51.8,29.92,SSE,167,0.0,0.0,60,0.00,,,0.00,0,Wunderground v.1.15,2013-05-09 00:48:00,
2013-05-08 20:53:00,65.7,52.3,29.92,SSE,167,0.0,0.0,62,0.00,,,0.00,0,Wunderground v.1.15,2013-05-09 00:53:00,
2013-05-08 20:58:00,65.2,52.3,29.92,SSE,167,0.0,0.0,63,0.00,,,0.00,0,Wunderground v.1.15,2013-05-09 00:58:00,
2013-05-08 21:00:00,66.3,53.3,29.92,North,-999,0.0,0.0,63,0.00,,,-99.99,2,WeatherLink 6.0.0,2013-05-09 01:00:00,
2013-05-08 21:03:00,64.9,52.4,29.92,SSE,167,0.0,0.0,64,0.00,,,0.00,0,Wunderground v.1.15,2013-05-09 01:03:00,
2013-05-08 21:08:00,64.3,52.3,29.92,SSE,167,2.0,3.0,65,0.00,,,0.00,0,Wunderground v.1.15,2013-05-09 01:08:00,
2013-05-08 21:13:00,63.6,52.4,29.92,SSE,167,0.0,1.0,67,0.00,,,0.00,0,Wunderground v.1.15,2013-05-09 01:13:00,
2013-05-08 21:18:00,63.3,52.2,29.92,SSE,167,0.0,1.0,67,0.00,,,0.00,0,Wunderground v.1.15,2013-05-09 01:18:00,
2013-05-08 21:23:00,63.2,51.6,29.93,SSE,167,0.0,0.0,66,0.00,,,0.00,0,Wunderground v.1.15,2013-05-09 01:23:00,
2013-05-08 21:28:00,62.9,51.8,29.93,SSE,167,0.0,0.0,67,0.00,,,0.00,0,Wunderground v.1.15,2013-05-09 01:28:00,
2013-05-08 21:30:00,63.7,52.9,29.93,SSE,157,0.0,3.0,68,0.00,,,-99.99,0,WeatherLink 6.0.0,2013-05-09 01:30:00,
2013-05-08 21:33:00,62.8,52.1,29.93,SSE,167,0.0,0.0,68,0.00,,,0.00,0,Wunderground v.1.15,2013-05-09 01:33:00,
2013-05-08 21:38:00,62.6,51.9,29.93,SSE,167,0.0,0.0,68,0.00,,,0.00,0,Wunderground v.1.15,2013-05-09 01:38:00,
2013-05-08 21:43:00,62.4,52.5,29.93,SSE,167,0.0,0.0,70,0.00,,,0.00,0,Wunderground v.1.15,2013-05-09 01:43:00,
2013-05-08 21:48:00,62.1,52.2,29.93,SSE,167,0.0,0.0,70,0.00,,,0.00,0,Wunderground v.1.15,2013-05-09 01:48:00,
2013-05-08 21:53:00,61.9,51.6,29.93,SSE,167,0.0,0.0,69,0.00,,,0.00,0,Wunderground v.1.15,2013-05-09 01:53:00,
2013-05-08 21:58:00,61.8,52.3,29.93,SSE,167,2.0,2.0,71,0.00,,,0.00,0,Wunderground v.1.15,2013-05-09 01:58:00,
2013-05-08 22:00:00,62.3,53.2,29.93,SSE,157,0.0,2.0,72,0.00,,,-99.99,0,WeatherLink 6.0.0,2013-05-09 02:00:00,
2013-05-08 22:03:00,61.5,52.4,29.93,SSE,167,0.0,0.0,72,0.00,,,0.00,0,Wunderground v.1.15,2013-05-09 02:03:00,
2013-05-08 22:08:00,61.2,52.1,29.93,SSE,167,0.0,0.0,72,0.00,,,0.00,0,Wunderground v.1.15,2013-05-09 02:08:00,
2013-05-08 22:13:00,61.0,51.9,29.94,SSE,167,0.0,0.0,72,0.00,,,0.00,0,Wunderground v.1.15,2013-05-09 02:13:00,
2013-05-08 22:18:00,60.8,52.1,29.94,SSE,167,0.0,0.0,73,0.00,,,0.00,0,Wunderground v.1.15,2013-05-09 02:18:00,
2013-05-08 22:23:00,60.5,52.2,29.94,SSE,167,0.0,0.0,74,0.00,,,0.00,0,Wunderground v.1.15,2013-05-09 02:23:00,
2013-05-08 22:28:00,60.3,52.3,29.94,SSE,167,0.0,0.0,75,0.00,,,0.00,0,Wunderground v.1.15,2013-05-09 02:28:00,
2013-05-08 22:30:00,60.9,52.9,29.94,SSE,157,0.0,2.0,75,0.00,,,-99.99,0,WeatherLink 6.0.0,2013-05-09 02:30:00,
2013-05-08 22:33:00,59.9,52.0,29.94,SSE,167,1.0,2.0,75,0.00,,,0.00,0,Wunderground v.1.15,2013-05-09 02:33:00,
2013-05-08 22:38:00,59.5,51.9,29.94,SSE,167,1.0,2.0,76,0.00,,,0.00,0,Wunderground v.1.15,2013-05-09 02:38:00,
2013-05-08 22:43:00,59.1,51.9,29.94,SSE,167,0.0,2.0,77,0.00,,,0.00,0,Wunderground v.1.15,2013-05-09 02:43:00,
2013-05-08 22:48:00,58.9,51.7,29.94,SSE,167,0.0,2.0,77,0.00,,,0.00,0,Wunderground v.1.15,2013-05-09 02:48:00,
2013-05-08 22:53:00,58.9,52.1,29.94,SSE,167,0.0,0.0,78,0.00,,,0.00,0,Wunderground v.1.15,2013-05-09 02:53:00,
2013-05-08 22:58:00,58.9,52.1,29.94,SSE,167,0.0,0.0,78,0.00,,,0.00,0,Wunderground v.1.15,2013-05-09 02:58:00,
2013-05-08 23:00:00,59.2,52.3,29.94,SSE,157,0.0,2.0,78,0.00,,,-99.99,0,WeatherLink 6.0.0,2013-05-09 03:00:00,
2013-05-08 23:03:00,58.7,51.9,29.94,SSE,167,0.0,0.0,78,0.00,,,0.00,0,Wunderground v.1.15,2013-05-09 03:03:00,
2013-05-08 23:08:00,58.6,52.1,29.94,SSE,167,0.0,1.0,79,0.00,,,0.00,0,Wunderground v.1.15,2013-05-09 03:08:00,
2013-05-08 23:13:00,58.3,51.8,29.94,SSE,167,0.0,0.0,79,0.00,,,0.00,0,Wunderground v.1.15,2013-05-09 03:13:00,
2013-05-08 23:18:00,58.2,51.7,29.94,SSE,167,0.0,0.0,79,0.00,,,0.00,0,Wunderground v.1.15,2013-05-09 03:18:00,
2013-05-08 23:23:00,58.1,52.0,29.94,SSE,167,0.0,0.0,80,0.00,,,0.00,0,Wunderground v.1.15,2013-05-09 03:23:00,
2013-05-08 23:28:00,58.0,51.9,29.94,SSE,167,0.0,1.0,80,0.00,,,0.00,0,Wunderground v.1.15,2013-05-09 03:28:00,
2013-05-08 23:30:00,58.3,52.2,29.94,SSE,157,0.0,1.0,80,0.00,,,-99.99,0,WeatherLink 6.0.0,2013-05-09 03:30:00,
2013-05-08 23:33:00,57.9,51.8,29.94,SSE,167,0.0,0.0,80,0.00,,,0.00,0,Wunderground v.1.15,2013-05-09 03:33:00,
2013-05-08 23:38:00,57.8,52.3,29.94,SSE,167,0.0,0.0,82,0.00,,,0.00,0,Wunderground v.1.15,2013-05-09 03:38:00,
2013-05-08 23:43:00,57.9,52.1,29.94,SSE,167,0.0,0.0,81,0.00,,,0.00,0,Wunderground v.1.15,2013-05-09 03:43:00,
2013-05-08 23:48:00,57.7,51.9,29.94,SSE,167,0.0,0.0,81,0.00,,,0.00,0,Wunderground v.1.15,2013-05-09 03:48:00,
2013-05-08 23:53:00,57.4,51.9,29.94,SSE,167,0.0,0.0,82,0.00,,,0.00,0,Wunderground v.1.15,2013-05-09 03:53:00,
2013-05-08 23:58:00,57.2,51.8,29.94,SSE,167,0.0,0.0,82,0.00,,,0.00,0,Wunderground v.1.15,2013-05-09 03:58:00,